"Pseudo-MPEC" for P11DJDA

Created 2023 Apr 3 10:22:10 UT using Find_Orb

Click here for an explanation of pseudo-MPECs

 
 Astrometry: 
     P11DJDA* C2023 03 21G/AstrometryG'NU.r4.Vredacted;VW5xYF)#t3;nC=AF*mF*etF51
     P11DJDA  C2023 03 21:'\2]Jtn'Q]Yclickd)g#*]qMmNrwu\alherevh(bLS\@4g#G,adF51
     P11DJDA  C2023 03 21Mdn06Ad)o]ZEU,HlN*T]jtq2R?m]k1QVGLfor@*explanationvWF51

Station data:
(F51) Pan-STARRS 1, Haleakala  (N20.707234 W156.255910)  US/Hawaii.
   Observers J. Bulger, T. Lowe, A. Schultz, M. Willman. Measurers K.
   Chambers, S. Chastel, T. de Boer, L. Denneau, J. Fairlamb, H. Flewelling,
   M. Huber, C.-C. Lin, E. Magnier, Y. Ramanjooloo, R. Wainscoat, R. Weryk.
   1.8-m Ritchey-Chrétien + CCD.

Orbital elements:  P11DJDA
   Perihelion 2023 Mar 25.35982 +/- 75.5 TT =  8:38:08 (JD 2460028.85982)
Epoch 2023 Mar 22.0 TT = JDT 2460025.5   Earth MOID: 0.3812   Ma: 0.0868
M 358.04456009 +/- 31               (J2000 ecliptic)             AutoNEOCP
n   0.58200772 +/- 0.336            Peri.   47.06942 +/- 100
a   1.42074744 +/- 0.547            Node   140.21297 +/- 54
e   0.0490316 +/- 0.277             Incl.   19.73844 +/- 15
P   1.69/618.54d           H 21.81  G  0.15   U 12.0  SR
q 1.35108589 +/- 0.488    Q 1.49040898 +/- 35
From 3 observations 2023 Mar. 21 (32.1 min); mean residual 0".02
Residuals in arcseconds: 
230321 F51  .02+  .01-    230321 F51  .03-  .03+    230321 F51  .02+  .01-    

Ephemerides (geocentric):
Date (UTC) HH   RA             Dec           delta  r     elong  mag " sig PA
---- --------  ------------   ------------  ------ ------ -----  --- --------
2023 04 03 10  13 59 39.241   +42 41 30.16  .47396 1.3514 129.5 22.3  39d  22
2023 04 03 11  13 59 37.866   +42 42 28.40  .47405 1.3514 129.5 22.3  39d  22
2023 04 03 12  13 59 36.487   +42 43 26.51  .47414 1.3514 129.4 22.3  38d  14
2023 04 03 13  13 59 35.104   +42 44 24.51  .47423 1.3514 129.4 22.3  38d  14
2023 04 03 14  13 59 33.718   +42 45 22.40  .47432 1.3514 129.4 22.3  38d  14
2023 04 03 15  13 59 32.328   +42 46 20.16  .47441 1.3514 129.4 22.3  38d  14
2023 04 03 16  13 59 30.934   +42 47 17.81  .47450 1.3514 129.4 22.3  37d   8
2023 04 03 17  13 59 29.536   +42 48 15.34  .47459 1.3514 129.3 22.3  37d   8
2023 04 03 18  13 59 28.135   +42 49 12.75  .47468 1.3514 129.3 22.3  37d   8
2023 04 03 19  13 59 26.730   +42 50 10.05  .47477 1.3514 129.3 22.3  37d   8
2023 04 03 20  13 59 25.321   +42 51 07.23  .47487 1.3514 129.3 22.3  37d   7
2023 04 03 21  13 59 23.909   +42 52 04.29  .47496 1.3514 129.3 22.3  37d   7
2023 04 03 22  13 59 22.492   +42 53 01.23  .47505 1.3514 129.3 22.3  37d   7
2023 04 03 23  13 59 21.072   +42 53 58.06  .47514 1.3515 129.2 22.3  37d   7
2023 04 04 00  13 59 19.649   +42 54 54.76  .47523 1.3515 129.2 22.3  37d   7
2023 04 04 01  13 59 18.221   +42 55 51.35  .47532 1.3515 129.2 22.3  37d   7
2023 04 04 02  13 59 16.790   +42 56 47.83  .47542 1.3515 129.2 22.3  37d   7
2023 04 04 03  13 59 15.355   +42 57 44.18  .47551 1.3515 129.2 22.3  37d   7
2023 04 04 04  13 59 13.917   +42 58 40.42  .47560 1.3515 129.2 22.3  37d 177
2023 04 04 05  13 59 12.475   +42 59 36.54  .47569 1.3515 129.1 22.3  37d 177
2023 04 04 06  13 59 11.029   +43 00 32.54  .47579 1.3515 129.1 22.3  37d 177
2023 04 04 07  13 59 09.580   +43 01 28.43  .47588 1.3515 129.1 22.3  37d 177
2023 04 04 08  13 59 08.127   +43 02 24.20  .47597 1.3515 129.1 22.3  37d 177
2023 04 04 09  13 59 06.671   +43 03 19.85  .47606 1.3515 129.1 22.3  37d 176
2023 04 04 10  13 59 05.211   +43 04 15.38  .47616 1.3515 129.0 22.3  37d 176
2023 04 04 11  13 59 03.747   +43 05 10.79  .47625 1.3515 129.0 22.3  37d 176
2023 04 04 12  13 59 02.280   +43 06 06.09  .47634 1.3515 129.0 22.3  37d 176
2023 04 04 13  13 59 00.809   +43 07 01.27  .47644 1.3515 129.0 22.3  37d 176
2023 04 04 14  13 58 59.334   +43 07 56.33  .47653 1.3515 129.0 22.3  37d 176
2023 04 04 15  13 58 57.856   +43 08 51.27  .47662 1.3515 129.0 22.3  37d 176
2023 04 04 16  13 58 56.375   +43 09 46.09  .47672 1.3515 128.9 22.3  37d 176
2023 04 04 17  13 58 54.890   +43 10 40.80  .47681 1.3515 128.9 22.3  37d 176
2023 04 04 18  13 58 53.401   +43 11 35.39  .47691 1.3515 128.9 22.3  37d 175
2023 04 04 19  13 58 51.909   +43 12 29.86  .47700 1.3515 128.9 22.4  37d 175
2023 04 04 20  13 58 50.414   +43 13 24.21  .47710 1.3515 128.9 22.4  37d 175
2023 04 04 21  13 58 48.915   +43 14 18.45  .47719 1.3515 128.9 22.4  37d 175
2023 04 04 22  13 58 47.412   +43 15 12.56  .47728 1.3515 128.8 22.4  37d 175
2023 04 04 23  13 58 45.906   +43 16 06.56  .47738 1.3515 128.8 22.4  37d 175
2023 04 05 00  13 58 44.397   +43 17 00.44  .47747 1.3515 128.8 22.4  37d 175
2023 04 05 01  13 58 42.884   +43 17 54.21  .47757 1.3515 128.8 22.4  37d 175
2023 04 05 02  13 58 41.368   +43 18 47.85  .47766 1.3515 128.8 22.4  37d 175
2023 04 05 03  13 58 39.848   +43 19 41.38  .47776 1.3515 128.7 22.4  37d 175
2023 04 05 04  13 58 38.325   +43 20 34.79  .47785 1.3515 128.7 22.4  37d 174
2023 04 05 05  13 58 36.798   +43 21 28.08  .47795 1.3516 128.7 22.4  37d 174
2023 04 05 06  13 58 35.268   +43 22 21.25  .47805 1.3516 128.7 22.4  37d 174
2023 04 05 07  13 58 33.735   +43 23 14.30  .47814 1.3516 128.7 22.4  37d 174
2023 04 05 08  13 58 32.198   +43 24 07.24  .47824 1.3516 128.7 22.4  37d 174
2023 04 05 09  13 58 30.658   +43 25 00.06  .47833 1.3516 128.6 22.4  37d 174